STARLINK-11172, 60193

Orbit data source: Space-Track

STARLINK-11172, 60193 is a payload satellite owned by SpaceX/Seattle (US) in LEO that was launched on Wed, 03 Jul 2024 UTC via an FALCON 9 launch vehicle from the Air Force Eastern Test Range (AFETR). Payloads include a variety of satellites, spacecraft, and rockets equipped with specific instruments for various scientific and technological missions. These include communications satellites like Starlink; space stations such as the ISS; scientific satellites like the Hubble; Earth observation satellites from companies like Planet Labs, Umbra, and HawkEye 360; GPS; miniature CubeSats for education and research; and military/defense satellites.

Loading next visibility...
STARLINK-11172 details
Identifier
60193, 2024-124L
Orbit
LEO
Last TLE update15 hours ago
Origin
Flag of USSpaceX/Seattle (US)
ManufacturerSpaceX/Seattle
MissionOperational spacecraft
Bus & MotorSTARLINK V2M, Unknown motor
Mass730 kg wet, ~700 kg dry
Launch date (UTC)
2024-07-03 (6 months ago)
Launch vehicle
FALCON 9
Launch site
Air Force Eastern Test Range (AFETR)
Object type
Payload
Rocket body
Debris
Shape & HBRUnknown
Radar Cross SectionLarge (>1 m²)

Expand to show TLE details & history

TLE from 15 hours ago
0 STARLINK-11172
1 60193U 24124L   24355.91928697 -.00004107  00000-0 -29057-4 0  9993
2 60193  53.1576 188.9696 0001567 109.6424 250.4763 15.69703739 26836
Epoch: 2024-12-20T22:03Z
Definitive object data (Epoch: 2024-12-20T22:03:46.394Z)
Latitude-0.00001°
Longitude128.04839°
Altitude361.012 km
Speed7.694 km/s
True Right ascension12h 35m 52s
True Declination0° 00' 00"
Sunlit
Object was in daylight at TLE epoch
Visualization TLE readout
Latitude-41.45493°
Longitude83.8002°
Altitude374.547 km
Speed7.684 km/s
Apparent Right ascension05h 05m 07s
Apparent Declination-69° 25' 49"
Sunlit
Object is in daylight
Visualization observer readout
Local Sidereal Time12:08:22
Azimuth207.24° SW
Elevation-42.39°
Doppler factor1
Orbital elements
Apogee altitude361.062 km
Perigee altitude358.95 km
Semi-major axis6,738.143 km
Eccentricity0.0001567
Inclination53.1576°
RAAN188.9696°
Arg. of periapsis109.6424°
True anomaly250.45938°
Mean anomaly250.4763°
Eccentric anomaly250.46784°
Mean motion3.92403 °/min
BSTAR-0.000029057
Orbital period91.74 mins
Loading maneuver chart data...
Loading historical data...
Loading historical data...
Loading historical data...
Loading historical data...
Loading historical data...
Loading historical data...
Loading historical data...

STARLINK-11172 Visibility forecast

Observer location: undefined°, undefined

Span
Click to sort rows by Start time (UTC) header in descending order
Start Az.
Max El. time (UTC)
Max El. Az.
Max El.
End time (UTC)
End Az.
4 mins2024-12-21 23:02:27.385Z283.714° WNW2024-12-21 23:03:27.385Z253.312° W31.146°2024-12-21 23:06:27.385Z154.572° SSE
|